Starlink 6212

operational
NORAD ID: 57330 Int'l Des: 2023-099 Owner: SPXS Country: US Constellation: starlink
LEOCIRCULAR

关于 Starlink 6212

正在加载描述...

实时位置

正在加载3D地球...

即将过境

高度历史

Altitude vs Time

uPlot chart will show altitude changes over time

两行轨道根数

1 57330U 23099C 25351.65905436 -.00001092 00000-0 -65814-4 0 9997
2 57330 43.0052 335.0030 0000593 289.6864 70.3914 15.02512242133777
Epoch: Dec 17, 2025 • Age: 18 hours

当前状态

高度 561.4 km
速度 7.59 km/s
星下点 37.61°N, 154.25°E
发射日期 Jul 16, 2023
运行时间 2.4 years
类型 internet

技术详情

分类 Payload
质量 305.00 kg
干质量 290.00 kg
总质量 305.00 kg
长度 0.20 m
直径 2.80 m
跨度 9.00 m
形状 Box + pan
制造商 SPXS
平台类型 Starlink
阶段状态 In Orbit
所有者/国家 SPXS/US

大型星座

Loading constellations...